{"data":{"norad_id":59686,"intl_designator":"2024-086E","name":"STARLINK-32100","alt_names":[],"object_type":"PAYLOAD","status":"ACTIVE","operator":null,"country":"US","launch_date":"2024-05-08","launch_site_code":"AFETR","launch_vehicle":null,"mission":null,"orbit_class":"UNKNOWN","rcs_meters":null,"size_class":null,"mass_kg":null,"dimensions":null,"purposes":["comms"],"wikipedia_slug":null,"has_3d_model":false,"image_url":null,"decayed_at":null,"tle_current":{"epoch":"2026-09-21T14:53:01.556160Z","epoch_age_seconds":74444,"freshness":"FRESH","line1":"1 59686U 24086E   26264.62015690  .00000111  00000+0  13568-4 0  9992","line2":"2 59686  43.0049  15.2806 0001148 271.0702  89.0018 15.27578207134289","mean_motion":15.27578207,"eccentricity":0.0001148,"inclination_deg":43.0049,"raan_deg":15.2806,"arg_perigee_deg":271.0702,"mean_anomaly_deg":89.0018,"bstar":1.3568e-5,"rev_number":13428,"period_min":94.266859359561,"perigee_km":482.26680015176,"apogee_km":483.84212971211,"semimajor_km":6861.1914649319,"source":"CELESTRAK","updated_at":"2026-09-22T09:00:49.032273Z"}}}